Miscellaneous Local Product
Issued by NWS Hastings, NE

Home | Current Version | Previous Version | Graphics & Text | Print | Product List | Glossary On
Versions: 1 2 3 4 5 6 7 8 9 10 11 12 13 14 15 16 17 18 19 20 21 22 23 24 25 26 27 28 29 30 31 32 33 34 35 36 37 38 39 40 41 42 43 44 45 46 47 48 49 50
000
AXUS43 KGID 261902
MISGRI

GID CWA HOURLY WEATHER ROUNDUP
NATIONAL WEATHER SERVICE HASTINGS NE
100 PM CST SUN FEB 26 2017

NOTE: "FAIR" INDICATES FEW OR NO CLOUDS BELOW 12,000 FEET WITH NO
SIGNIFICANT WEATHER AND/OR OBSTRUCTIONS TO VISIBILITY.

...SOUTH CENTRAL NEBRASKA...

CITY           SKY/WX    TMP DP  RH WIND       PRES   REMARKS
GRAND ISLAND   SUNNY     40  22  48 NW6       29.93F
HASTINGS       SUNNY     43  14  31 W13       29.93F
KEARNEY        SUNNY     39  12  33 W10G16    29.92F WCI  32
ORD            SUNNY     34  16  47 CALM      29.90F
YORK           SUNNY     39  25  56 SW3       29.94F
AURORA         SUNNY     40  22  49 CALM      29.93S
LEXINGTON      SUNNY     38  15  38 NW12G20   29.91F WCI  31
HOLDREGE       SUNNY     41   9  27 W13G18    29.91F
HEBRON         SUNNY     46  13  26 W9        29.93F

...NEBRASKA PANHANDLE...

CITY           SKY/WX    TMP DP  RH WIND       PRES   REMARKS
CHADRON        SUNNY     24   7  48 W8        29.85F WCI  15
ALLIANCE       SUNNY     25  14  63 W17       29.84S WCI  12
SCOTTSBLUFF    SUNNY     30  13  49 W9        29.85F WCI  22
SIDNEY         SUNNY     32  11  41 NW17      29.85F WCI  21

...WESTERN AND NORTH CENTRAL NEBRASKA...

CITY           SKY/WX    TMP DP  RH WIND       PRES   REMARKS
VALENTINE      SUNNY     28  14  55 W9        29.85F WCI  19
AINSWORTH      SUNNY     31  19  60 W8        29.86F WCI  24
ONEILL         SUNNY     33  17  51 SW6       29.89F WCI  27
BROKEN BOW     SUNNY     33  18  53 W7        29.89F WCI  27
IMPERIAL       SUNNY     38  10  31 NW16G24   29.89F WCI  29
NORTH PLATTE   SUNNY     37  14  38 W14       29.91S WCI  28
MCCOOK         SUNNY     43   8  23 NW23G29   29.91F

...EASTERN NEBRASKA...

CITY           SKY/WX    TMP DP  RH WIND       PRES   REMARKS
NORFOLK        SUNNY     32  19  58 S9        29.91F WCI  24
SO SIOUX CITY  SUNNY     34  22  61 W6        29.93S WCI  29
TEKAMAH        SUNNY     33  20  58 SW3       29.95F
COLUMBUS       SUNNY     37  23  56 W3        29.94F
ALBION         SUNNY     36  20  51 CALM      29.92S
OMAHA EPPLEY   MOSUNNY   41  21  44 NW8       29.95F
OFFUTT AFB     SUNNY     42  22  45 W10       29.95F
MILLARD        SUNNY     41  22  47 W8        29.96S
LINCOLN        SUNNY     42  23  46 W6        29.97F
NEBRASKA CITY  SUNNY     48  17  28 W17       29.94F
BEATRICE       SUNNY     49  21  32 W16G25    29.93F
FALLS CITY     MOSUNNY   52  25  35 SW12G22   29.93F

...NORTHERN KANSAS...

CITY           SKY/WX    TMP DP  RH WIND       PRES   REMARKS
GOODLAND       SUNNY     41   7  24 S7        29.88F
HILL CITY      SUNNY     48   5  17 N12G22    29.93F
PHILLIPSBURG   SUNNY     48   5  17 W15G23    29.92F
SMITH CENTER   SUNNY     46  10  23 W9G17     29.93F
HAYS           SUNNY     48  11  22 NE12      29.94F
RUSSELL        SUNNY     49  15  25 NE10      29.92F
CONCORDIA      SUNNY     49  17  28 W9        29.93F
SALINA         SUNNY     50  26  39 NW6       29.95F
TOPEKA         PTSUNNY   51  24  34 S10G16    29.96F



USA.gov is the U.S. government's official web portal to all federal, state and local government web resources and services.